Weather History for Kingman, AZ

Change the Weather History Date:

Wednesday, August 7, 2013

  Actual Average Record
Temperature  
Mean Temperature 82 °F 84 °F  
Max Temperature 94 °F 97 °F 110 °F (1920)
Min Temperature 69 °F 71 °F 54 °F (1911)
Degree Days  
Heating Degree Days 0 0  
Month to date heating degree days 0 0  
Since 1 June heating degree days 0 3  
Since 1 July heating degree days 0 0  
Cooling Degree Days 17 18  
Month to date cooling degree days 139 132  
Year to date cooling degree days 1493 1291  
Since 1 June cooling degree days 1271 1093  
Growing Degree Days 31 (Base 50)    
Moisture  
Dew Point 43 °F    
Average Humidity 36    
Maximum Humidity 61    
Minimum Humidity 11    
Precipitation  
Precipitation 0.00 in 0.02 in 0.99 in (1948)
Month to date precipitation 0.00 0.18  
Year to date precipitation 2.67 4.48  
Sea Level Pressure  
Sea Level Pressure 29.83 in    
Wind  
Wind Speed 11 mph (South)    
Max Wind Speed 26 mph    
Max Gust Speed 31 mph    
Visibility 10 miles    
Events      
T = Trace of Precipitation, MM = Missing Value Source: NWS Daily Summary

Daily Weather History Graph

Daily Weather History Graph

Search for Another Location

Airport:

Trip Planner

Search our weather history database for the weather conditions in past years. The results will help you decide how hot, cold, wet, or windy it might be!

Date:

Astronomy

Aug. 07, 2013 Rise Set
Actual Time 5:49 AM MST 7:32 PM MST
Civil Twilight 5:22 AM MST 8:00 PM MST
Nautical Twilight 4:48 AM MST 8:33 PM MST
Astronomical Twilight 4:13 AM MST 9:08 PM MST
Moon 6:37 AM MST (8/7) 7:47 PM MST (8/7)
Length of Visible Light 14h 38m
Length of Day
13h 43m
New Moon, 1% of the Moon is Illuminated
Aug 7
New Moon
Aug 14
First Quarter
Aug 20
Full
Aug 28
Last Quarter
Sep 5
New

Hourly Weather History & Observations

Time (MST) Temp. Dew Point Humidity Pressure Visibility Wind Dir Wind Speed Gust Speed Precip Events Conditions
12:51 AM 73.9 °F 46.0 °F 37% 29.84 in 10.0 mi SE 3.5 mph - N/A   Clear
1:51 AM 75.0 °F 50.0 °F 41% 29.84 in 10.0 mi East 3.5 mph - N/A   Clear
2:51 AM 71.1 °F 55.0 °F 57% 29.83 in 10.0 mi SE 8.1 mph - N/A   Clear
3:51 AM 71.1 °F 55.9 °F 59% 29.83 in 10.0 mi ESE 11.5 mph - N/A   Clear
4:51 AM 70.0 °F 55.9 °F 61% 29.84 in 10.0 mi SE 8.1 mph - N/A   Clear
5:51 AM 69.1 °F 55.0 °F 61% 29.86 in 10.0 mi ESE 11.5 mph - N/A   Clear
6:51 AM 73.0 °F 55.9 °F 55% 29.87 in 10.0 mi SE 8.1 mph - N/A   Clear
7:51 AM 78.1 °F 54.0 °F 43% 29.88 in 10.0 mi East 4.6 mph - N/A   Clear
8:51 AM 80.1 °F 51.1 °F 36% 29.89 in 10.0 mi SW 3.5 mph - N/A   Clear
9:51 AM 84.0 °F 48.9 °F 29% 29.88 in 10.0 mi WSW 6.9 mph - N/A   Clear
10:51 AM 88.0 °F 46.0 °F 23% 29.86 in 10.0 mi West 12.7 mph 19.6 mph N/A   Clear
11:51 AM 90.0 °F 44.1 °F 20% 29.85 in 10.0 mi WSW 17.3 mph - N/A   Clear
12:51 PM 91.9 °F 39.0 °F 16% 29.84 in 10.0 mi SW 16.1 mph 25.3 mph N/A   Clear
1:51 PM 93.0 °F 37.9 °F 15% 29.83 in 10.0 mi SW 18.4 mph 31.1 mph N/A   Clear
2:51 PM 91.9 °F 41.0 °F 17% 29.82 in 10.0 mi SW 21.9 mph 27.6 mph N/A   Clear
3:51 PM 91.9 °F 36.0 °F 14% 29.80 in 10.0 mi WSW 17.3 mph 25.3 mph N/A   Clear
4:51 PM 91.9 °F 35.1 °F 13% 29.78 in 10.0 mi WSW 17.3 mph 23.0 mph N/A   Clear
5:51 PM 91.0 °F 35.1 °F 14% 29.78 in 10.0 mi SW 12.7 mph 21.9 mph N/A   Clear
6:51 PM 89.1 °F 28.9 °F 12% 29.79 in 10.0 mi SW 12.7 mph - N/A   Clear
7:51 PM 84.0 °F 30.9 °F 15% 29.79 in 10.0 mi SW 10.4 mph - N/A   Clear
8:51 PM 79.0 °F 32.0 °F 18% 29.80 in 10.0 mi South 11.5 mph - N/A   Clear
9:51 PM 78.1 °F 34.0 °F 20% 29.81 in 10.0 mi SSE 11.5 mph - N/A   Clear
10:51 PM 75.0 °F 32.0 °F 21% 29.80 in 10.0 mi South 11.5 mph - N/A   Clear
11:51 PM 73.9 °F 26.1 °F 17% 29.80 in 10.0 mi South 12.7 mph - N/A   Clear